Regional Weather Roundup
Issued by NWS Mt. Holly, NJ

Home | Current Version | Previous Version | Text Only | Print | Product List | Glossary On
Versions: 1 2 3 4 5 6 7 8 9 10 11 12 13 14 15 16 17 18 19 20 21 22 23 24 25 26 27 28 29 30 31 32 33 34 35 36 37 38 39 40 41 42 43 44 45 46 47 48 49 50
000
ASUS41 KPHI 072312
RWRPHI

REGIONAL WEATHER ROUNDUP
NATIONAL WEATHER SERVICE MOUNT HOLLY NJ
700 PM EDT TUE APR 07 2020

NOTE:  "FAIR" INDICATES FEW OR NO CLOUDS BELOW 12,000 FEET WITH NO
SIGNIFICANT WEATHER AND/OR OBSTRUCTIONS TO VISIBILITY.

 * = STATION DOES NOT REPORT PRECIPITATION (E.G. RAIN, SNOW, ETC.)
        OR FOG.

NJZ015>026-080000-
SOUTHERN NEW JERSEY

CITY           SKY/WX    TMP DP  RH WIND       PRES   REMARKS
POMONA         MOCLDY    56  46  69 S8        29.77
WILDWOOD*      CLOUDY    55  48  77 S7        29.79F
MILLVILLE      FAIR      57  46  66 S3        29.77F
WRIGHTSTOWN    FAIR      64  45  50 S6        29.74F
MOUNT HOLLY    FAIR      64  45  49 SW6       29.75F
TRENTON        FAIR      62  46  55 SW6       29.74S

$$
NJZ001>014-080000-
NORTHERN NEW JERSEY

CITY           SKY/WX    TMP DP  RH WIND       PRES   REMARKS
SUSSEX         FAIR      64  32  30 SW7       29.72F
ANDOVER*         N/A     63  34  33 SW8       29.72F
MORRISTOWN     PTCLDY    64  37  36 SW9G15    29.73F
NEWARK         MOCLDY    59  35  40 VRB6      29.74F
TETERBORO      FAIR      58  30  34 S7        29.73S
CALDWELL       FAIR      64  32  30 S10       29.73F
SOMERVILLE     FAIR      63  38  39 S3        29.71F
ALLAIRE*       FAIR      58  39  49 S9        29.77F
TOMS RIVER*    FAIR      60  41  49 S8        29.77S

$$
PAZ043-044-047-054-055-060>062-066>071-080000-
EASTERN PENNSYLVANIA

CITY           SKY/WX    TMP DP  RH WIND       PRES   REMARKS
PHILADELPHIA   FAIR      65  48  54 SW14      29.76S
NORTH PHILA    FAIR      67  47  48 S5        29.76F
BLUE BELL*     FAIR      63  49  60 S6        29.75S
DOYLESTOWN     FAIR      64  44  48 S6        29.73F
QUAKERTOWN*    CLEAR     64  41  42 SW5       29.74
PERKASIE*      FAIR      63  45  51 S3        29.75S
POTTSTOWN      FAIR      64  43  46 SW5       29.74F
LANCASTER      FAIR      66  46  48 SW8       29.73S
COATESVILLE    FAIR      63  52  67 VRB5      29.76S
WEST CHESTER   FAIR      63  48  59 CALM      29.75S
READING        CLOUDY    66  43  43 SW5       29.72S
ALLENTOWN      FAIR      66  39  37 W8        29.73S
QN CITY/ALNTWN FAIR      64  41  42 W7        29.75R
MOUNT POCONO   CLOUDY    57  31  37 SW7       29.73S
HAZLETON       CLOUDY    61  32  33 CALM      29.76F
LEHIGHTON      MOCLDY    64  37  36 CALM      29.72F
WILKES BARRE   CLOUDY    64  30  27 W9        29.73R

$$
DEZALL-MDZ008-012-015-019-020-080000-
DELAWARE AND EASTERN MARYLAND

CITY           SKY/WX    TMP DP  RH WIND       PRES   REMARKS
WILMINGTON     FAIR      57  48  72 S9        29.77S
DOVER          FAIR      58  53  82 CALM      29.76F
CHESWOLD       CLEAR     61  52  72 CALM      29.77S
GEORGETOWN     FAIR      67  55  65 W5        29.77F
EASTON         CLEAR     64  57  77 S5        29.80F
STEVENSVILLE   FAIR      61  57  88 SW5       29.77S
ABERDEEN       FAIR      61  53  75 SW3       29.77S
PATUXENT       FAIR      61  58  90 CALM      29.79
OCEAN CITY     MOCLDY    57  51  80 S10       29.81S
WALLOPS ISLAND FAIR      55  53  93 S7        29.80F
CAMBRIDGE      CLEAR     63  59  88 CALM      29.78F
SALISBURY      FAIR      63  56  78 S5        29.78S

$$
PAZ001-021-NYZ056-072-MDZ011-DCZ001-080000-
OTHER NEARBY LOCATIONS

CITY           SKY/WX    TMP DP  RH WIND       PRES   REMARKS
HARRISBURG     MOCLDY    65  48  54 SW8       29.72F
STATE COLLEGE  CLOUDY    61  50  67 W5        29.73S
WILLIAMSPORT   CLOUDY    61  41  47 CALM      29.72R
BINGHAMTON     CLOUDY    58  29  33 S3        29.70F
NEW YORK CITY  FAIR      57  30  35 CALM      29.77F
BALTIMORE      MOCLDY    64  55  72 SW5       29.77R
WASHINGTON DC  MOCLDY    63  57  81 S3        29.79S

$$



USA.gov is the U.S. government's official web portal to all federal, state and local government web resources and services.